Content
SEND FEEDBACK

Daily
Averages
Monthly
Summary
United States of America

SPARTA, WISCONSIN


Home > North America > United States > Wisconsin
Elevation: 839 feet     Latitude: 43 57N     Longitude: 090 44W

WEATHER
 
SELECT A DAY
Number of Records: 327,964;   Date Range: 3/26/01 - 7/29/14
 
SHARE

PRINT THIS DATA

[ ← Previous Day ]
WEATHER ALMANAC - JANUARY 31, 2013
[ Next Day → ]
[ °C ]   °F
Weather ElementAverageHighLow
Temperature7.5 °F14 °F (12:35 am)-0.4 °F (10:15 pm)
Humidity71.6 %85 % (4:55 am)62 % (10:55 am)
Barometer29.91 in30.18 in (11:35 pm)29.67 in (12:35 am)
Wind Speed10.4 mph16.1 mph (12:55 pm)
Wind Gust24.2 mph (10:35 am)
Weather ElementAverage
Visibility8.3 mi
Wind DirectionWNW (291.3 °)

Weather ElementTotal
Precipitation---
Heating Degree Days58.2 (Base 65)
Averaged from 69 records on January 31, 2013
WEATHER CONDITIONS BREAKOUT
WIND DIRECTION BREAKOUT
WEATHER BY HOUR - JANUARY 31, 2013
[ °C ]   °F
Local TimeTemperatureDewpointHumidityBarometerVisibilityWind DirectionWind SpeedGust SpeedPrecipitationEventsConditions
12:35 AM14.0 °F6.8 °F73 %29.67 in10.0 miWNW (300°)11.5 mph17.3 mphMostly Cloudy
12:55 AM14.0 °F6.8 °F73 %29.67 in10.0 miWNW (300°)8.1 mphMostly Cloudy
1:15 AM14.0 °F8.6 °F79 %29.67 in7.0 miWNW (290°)5.8 mphSnowLight Snow
1:35 AM14.0 °F8.6 °F79 %29.68 in10.0 miWNW (290°)9.2 mphMostly Cloudy
1:55 AM14.0 °F8.6 °F79 %29.69 in7.0 miWest (280°)10.4 mphSnowLight Snow
2:15 AM12.2 °F5.0 °F73 %29.70 in7.0 miWNW (290°)12.7 mph18.4 mphMostly Cloudy
2:35 AM12.2 °F3.2 °F67 %29.70 in10.0 miWNW (290°)10.4 mphOvercast
2:55 AM12.2 °F3.2 °F67 %29.70 in10.0 miWNW (300°)11.5 mphOvercast
3:15 AM12.2 °F3.2 °F67 %29.71 in10.0 miWNW (300°)10.4 mph16.1 mphMostly Cloudy
3:35 AM12.2 °F5.0 °F73 %29.71 in5.0 miWNW (290°)8.1 mph18.4 mphSnowLight Snow
3:55 AM10.4 °F5.0 °F79 %29.71 in5.0 miWNW (290°)8.1 mphSnowLight Snow
4:15 AM10.4 °F5.0 °F79 %29.72 in5.0 miWNW (300°)5.8 mphSnowLight Snow
4:35 AM10.4 °F5.0 °F79 %29.72 in5.0 miWNW (290°)4.6 mphSnowLight Snow
4:55 AM10.4 °F6.8 °F85 %29.72 in5.0 miWest (280°)5.8 mphSnowLight Snow
5:15 AM10.4 °F5.0 °F79 %29.73 in7.0 miWNW (300°)15.0 mph18.4 mphOvercast
5:35 AM10.4 °F3.2 °F73 %29.73 in10.0 miWNW (300°)11.5 mph19.6 mphMostly Cloudy
5:55 AM10.4 °F3.2 °F73 %29.75 in10.0 miWNW (300°)8.1 mphMostly Cloudy
6:15 AM8.6 °F1.4 °F73 %29.75 in10.0 miWNW (290°)9.2 mph17.3 mphScattered Clouds
6:55 AM8.6 °F1.4 °F73 %29.78 in10.0 miWest (280°)13.8 mph19.6 mphScattered Clouds
7:15 AM8.6 °F1.4 °F73 %29.79 in10.0 miWest (280°)11.5 mph18.4 mphScattered Clouds
7:35 AM6.8 °F1.4 °F79 %29.80 in10.0 miWNW (300°)12.7 mph18.4 mphClear
7:55 AM6.8 °F-0.4 °F72 %29.81 in10.0 miWNW (290°)13.8 mph18.4 mphScattered Clouds
8:15 AM6.8 °F-0.4 °F72 %29.82 in10.0 miWNW (290°)9.2 mphClear
8:35 AM6.8 °F1.4 °F79 %29.83 in10.0 miWNW (300°)10.4 mphClear
8:55 AM8.6 °F1.4 °F73 %29.83 in10.0 miWNW (290°)12.7 mph17.3 mphClear
9:15 AM8.6 °F-0.4 °F67 %29.84 in10.0 miWNW (300°)13.8 mph19.6 mphScattered Clouds
9:35 AM8.6 °F-0.4 °F67 %29.85 in10.0 miWNW (300°)12.7 mphMostly Cloudy
9:55 AM8.6 °F-0.4 °F67 %29.85 in10.0 miNW (310°)11.5 mphScattered Clouds
10:15 AM8.6 °F-0.4 °F67 %29.86 in7.0 miWNW (300°)13.8 mph18.4 mphMostly Cloudy
10:35 AM8.6 °F-0.4 °F67 %29.87 in5.0 miWNW (300°)13.8 mph24.2 mphHaze
10:55 AM10.4 °F-0.4 °F62 %29.88 in10.0 miNW (320°)11.5 mph18.4 mphScattered Clouds
11:15 AM10.4 °F-0.4 °F62 %29.88 in10.0 miWNW (290°)12.7 mph21.9 mphMostly Cloudy
11:35 AM10.4 °F1.4 °F67 %29.89 in7.0 miWNW (300°)9.2 mphMostly Cloudy
11:55 AM10.4 °F1.4 °F67 %29.89 in7.0 miNW (310°)11.5 mph20.7 mphMostly Cloudy
12:15 PM10.4 °F-0.4 °F62 %29.90 in10.0 miWNW (300°)12.7 mph18.4 mphMostly Cloudy
12:35 PM10.4 °F1.4 °F67 %29.90 in5.0 miNW (310°)13.8 mph18.4 mphHaze
12:55 PM10.4 °F-0.4 °F62 %29.90 in7.0 miWest (280°)16.1 mph24.2 mphMostly Cloudy
1:15 PM8.6 °F-0.4 °F67 %29.91 in7.0 miNW (310°)15.0 mph21.9 mphMostly Cloudy
1:35 PM10.4 °F-0.4 °F62 %29.91 in10.0 miWNW (300°)12.7 mphMostly Cloudy
1:55 PM10.4 °F1.4 °F67 %29.92 in10.0 miWNW (300°)11.5 mph19.6 mphScattered Clouds
2:15 PM10.4 °F-0.4 °F62 %29.92 in10.0 miWNW (300°)15.0 mph19.6 mphScattered Clouds
2:35 PM8.6 °F1.4 °F73 %29.93 in4.0 miWNW (290°)11.5 mph16.1 mphHaze
2:55 PM8.6 °F1.4 °F73 %29.94 in4.0 miWNW (290°)11.5 mph20.7 mphHaze
3:15 PM8.6 °F3.2 °F79 %29.95 in1.2 miNW (310°)11.5 mphSnowLight Snow
3:35 PM8.6 °F3.2 °F79 %29.97 in1.5 miWNW (300°)13.8 mph18.4 mphSnowLight Snow
3:55 PM8.6 °F1.4 °F73 %29.98 in2.5 miWNW (300°)9.2 mph17.3 mphHaze
4:15 PM6.8 °F-0.4 °F72 %29.99 in4.0 miWNW (300°)13.8 mph23.0 mphHaze
4:35 PM6.8 °F-0.4 °F72 %30.00 in3.0 miWNW (300°)11.5 mph17.3 mphHaze
4:55 PM5.0 °F-0.4 °F78 %30.01 in7.0 miWNW (300°)10.4 mph18.4 mphMostly Cloudy
5:15 PM5.0 °F-2.2 °F72 %30.02 in10.0 miWNW (300°)12.7 mph23.0 mphScattered Clouds
5:35 PM5.0 °F-2.2 °F72 %30.04 in10.0 miWNW (290°)9.2 mph17.3 mphScattered Clouds
5:55 PM5.0 °F-4.0 °F66 %30.05 in10.0 miWNW (290°)9.2 mph16.1 mphMostly Cloudy
6:15 PM3.2 °F-4.0 °F72 %30.07 in7.0 miWNW (290°)10.4 mph18.4 mphScattered Clouds
6:35 PM3.2 °F-4.0 °F72 %30.07 in10.0 miWNW (290°)11.5 mph16.1 mphScattered Clouds
6:55 PM3.2 °F-4.0 °F72 %30.08 in10.0 miWNW (290°)9.2 mphClear
7:15 PM3.2 °F-4.0 °F72 %30.09 in10.0 miWNW (290°)11.5 mphClear
7:35 PM3.2 °F-5.8 °F66 %30.10 in10.0 miWNW (290°)8.1 mphClear
8:15 PM1.4 °F-5.8 °F72 %30.11 in10.0 miWest (270°)8.1 mphScattered Clouds
8:35 PM1.4 °F-5.8 °F72 %30.12 in10.0 miWest (270°)5.8 mphScattered Clouds
8:55 PM1.4 °F-5.8 °F72 %30.13 in10.0 miWest (270°)9.2 mphClear
9:15 PM1.4 °F-5.8 °F72 %30.13 in10.0 miWest (270°)8.1 mphClear
9:35 PM1.4 °F-5.8 °F72 %30.14 in10.0 miWest (280°)5.8 mphClear
9:55 PM1.4 °F-5.8 °F72 %30.14 in10.0 miWest (270°)4.6 mphClear
10:15 PM-0.4 °F-7.6 °F72 %30.15 in10.0 miWest (260°)6.9 mphClear
10:35 PM-0.4 °F-7.6 °F72 %30.15 in10.0 miWest (270°)8.1 mphClear
10:55 PM-0.4 °F-7.6 °F72 %30.15 in10.0 miWest (270°)8.1 mphClear
11:15 PM-0.4 °F-7.6 °F72 %30.16 in10.0 miWest (270°)8.1 mphClear
11:35 PM-0.4 °F-7.6 °F72 %30.18 in10.0 miWest (280°)6.9 mphClear
11:55 PM-0.4 °F-7.6 °F72 %30.18 in10.0 miWest (260°)6.9 mphClear
Hourly data recorded from KCMY, located miles away from Sparta, Wisconsin







STORIES FROM OUR PARTNERS